Time,TemperatureF,DewpointF,PressureIn,WindDirection,WindDirectionDegrees,WindSpeedMPH,WindSpeedGustMPH,Humidity,HourlyPrecipIn,Conditions,Clouds,dailyrainin,SolarRadiationWatts/m^2,SoftwareType,DateUTC
2013-02-01 00:01:00,52.0,46.0,-100.00,ENE,76,10.0,14.0,79,0.00,,,0.16,0.000000,,2013-02-01 10:01:00,
2013-02-01 00:11:00,52.0,46.0,-100.00,ENE,76,10.0,14.0,79,0.00,,,0.16,0.000000,,2013-02-01 10:11:00,
2013-02-01 00:21:00,52.0,46.0,-100.00,ENE,76,10.0,14.0,79,0.00,,,0.16,0.000000,,2013-02-01 10:21:00,
2013-02-01 00:31:00,52.0,46.0,-100.00,ENE,76,10.0,14.0,79,0.00,,,0.16,0.000000,,2013-02-01 10:31:00,
2013-02-01 00:53:00,51.0,45.0,-100.00,ENE,75,9.0,15.0,79,0.00,,,0.16,0.000000,,2013-02-01 10:53:00,
2013-02-01 01:01:00,51.0,45.0,-100.00,ENE,75,9.0,15.0,79,0.00,,,0.16,0.000000,,2013-02-01 11:01:00,
2013-02-01 01:11:00,51.0,45.0,-100.00,ENE,75,9.0,15.0,79,0.00,,,0.16,0.000000,,2013-02-01 11:11:00,
2013-02-01 01:21:00,51.0,45.0,-100.00,ENE,75,9.0,15.0,79,0.00,,,0.16,0.000000,,2013-02-01 11:21:00,
2013-02-01 01:31:00,51.0,45.0,-100.00,ENE,75,9.0,15.0,79,0.00,,,0.16,0.000000,,2013-02-01 11:31:00,
2013-02-01 01:53:00,52.0,45.0,-100.00,ENE,77,9.0,13.0,77,0.00,,,0.16,0.000000,,2013-02-01 11:53:00,
2013-02-01 02:02:00,52.0,45.0,-100.00,ENE,77,9.0,13.0,77,0.00,,,0.16,0.000000,,2013-02-01 12:02:00,
2013-02-01 02:12:00,52.0,45.0,-100.00,ENE,77,9.0,13.0,77,0.00,,,0.16,0.000000,,2013-02-01 12:12:00,
2013-02-01 02:22:00,52.0,45.0,-100.00,ENE,77,9.0,13.0,77,0.00,,,0.16,0.000000,,2013-02-01 12:22:00,
2013-02-01 02:32:00,52.0,45.0,-100.00,ENE,77,9.0,13.0,77,0.00,,,0.16,0.000000,,2013-02-01 12:32:00,
2013-02-01 02:52:00,51.0,38.0,-100.00,ENE,75,10.0,14.0,61,0.00,,,0.16,0.000000,,2013-02-01 12:52:00,
2013-02-01 03:02:00,51.0,38.0,-100.00,ENE,75,10.0,14.0,61,0.00,,,0.16,0.000000,,2013-02-01 13:02:00,
2013-02-01 03:11:00,51.0,38.0,-100.00,ENE,75,10.0,14.0,61,0.00,,,0.16,0.000000,,2013-02-01 13:11:00,
2013-02-01 03:21:00,51.0,38.0,-100.00,ENE,75,10.0,14.0,61,0.00,,,0.16,0.000000,,2013-02-01 13:21:00,
2013-02-01 03:32:00,51.0,38.0,-100.00,ENE,75,10.0,14.0,61,0.00,,,0.16,0.000000,,2013-02-01 13:32:00,
2013-02-01 03:53:00,52.0,43.0,-100.00,East,84,10.0,16.0,72,0.00,,,0.16,0.000000,,2013-02-01 13:53:00,
2013-02-01 04:03:00,52.0,43.0,-100.00,East,84,10.0,16.0,72,0.00,,,0.16,0.000000,,2013-02-01 14:03:00,
2013-02-01 04:11:00,52.0,43.0,-100.00,East,84,10.0,16.0,72,0.00,,,0.16,0.000000,,2013-02-01 14:11:00,
2013-02-01 04:21:00,52.0,43.0,-100.00,East,84,10.0,16.0,72,0.00,,,0.16,0.000000,,2013-02-01 14:21:00,
2013-02-01 04:31:00,52.0,43.0,-100.00,East,84,10.0,16.0,72,0.00,,,0.16,0.000000,,2013-02-01 14:31:00,
2013-02-01 04:53:00,49.0,41.0,-100.00,East,89,6.0,15.0,75,0.00,,,0.16,0.000000,,2013-02-01 14:53:00,
2013-02-01 05:02:00,49.0,41.0,-100.00,East,89,6.0,15.0,75,0.00,,,0.16,0.000000,,2013-02-01 15:02:00,
2013-02-01 05:12:00,49.0,41.0,-100.00,East,89,6.0,15.0,75,0.00,,,0.16,0.000000,,2013-02-01 15:12:00,
2013-02-01 05:21:00,49.0,41.0,-100.00,East,89,6.0,15.0,75,0.00,,,0.16,0.000000,,2013-02-01 15:21:00,
2013-02-01 05:32:00,49.0,41.0,-100.00,East,89,6.0,15.0,75,0.00,,,0.16,0.000000,,2013-02-01 15:32:00,
2013-02-01 05:52:00,49.0,45.0,-100.00,East,88,4.0,14.0,85,0.00,,,0.16,0.000000,,2013-02-01 15:52:00,
2013-02-01 06:02:00,49.0,45.0,-100.00,East,88,4.0,14.0,85,0.00,,,0.16,0.000000,,2013-02-01 16:02:00,
2013-02-01 06:11:00,49.0,45.0,-100.00,East,88,4.0,14.0,85,0.00,,,0.16,0.000000,,2013-02-01 16:11:00,
2013-02-01 06:21:00,49.0,45.0,-100.00,East,88,4.0,14.0,85,0.00,,,0.16,0.000000,,2013-02-01 16:21:00,
2013-02-01 06:32:00,49.0,45.0,-100.00,East,88,4.0,14.0,85,0.00,,,0.16,0.000000,,2013-02-01 16:32:00,
2013-02-01 06:52:00,51.0,44.0,-100.00,ENE,69,6.0,11.0,77,0.00,,,0.16,0.000000,,2013-02-01 16:52:00,
2013-02-01 07:02:00,51.0,44.0,-100.00,ENE,69,6.0,11.0,77,0.00,,,0.16,0.000000,,2013-02-01 17:02:00,
2013-02-01 07:11:00,51.0,44.0,-100.00,ENE,69,6.0,11.0,77,0.00,,,0.16,0.000000,,2013-02-01 17:11:00,
2013-02-01 07:22:00,51.0,44.0,-100.00,ENE,69,6.0,11.0,77,0.00,,,0.16,0.000000,,2013-02-01 17:22:00,
2013-02-01 07:31:00,51.0,44.0,-100.00,ENE,69,6.0,11.0,77,0.00,,,0.16,0.000000,,2013-02-01 17:31:00,
2013-02-01 07:53:00,49.0,43.0,-100.00,NE,42,3.0,11.0,81,0.00,,,0.16,8.000000,,2013-02-01 17:53:00,
2013-02-01 08:02:00,49.0,43.0,-100.00,NE,42,3.0,11.0,81,0.00,,,0.16,8.000000,,2013-02-01 18:02:00,
2013-02-01 08:12:00,49.0,43.0,-100.00,NE,42,3.0,11.0,81,0.00,,,0.16,8.000000,,2013-02-01 18:12:00,
2013-02-01 08:22:00,49.0,43.0,-100.00,NE,42,3.0,11.0,81,0.00,,,0.16,8.000000,,2013-02-01 18:22:00,
2013-02-01 08:31:00,49.0,43.0,-100.00,NE,42,3.0,11.0,81,0.00,,,0.16,8.000000,,2013-02-01 18:31:00,
2013-02-01 08:53:00,58.0,47.0,-100.00,NNW,328,5.0,10.0,66,0.00,,,0.16,235.000000,,2013-02-01 18:53:00,
2013-02-01 09:02:00,58.0,47.0,-100.00,NNW,328,5.0,10.0,66,0.00,,,0.16,235.000000,,2013-02-01 19:02:00,
2013-02-01 09:11:00,58.0,47.0,-100.00,NNW,328,5.0,10.0,66,0.00,,,0.16,235.000000,,2013-02-01 19:11:00,
2013-02-01 09:21:00,58.0,47.0,-100.00,NNW,328,5.0,10.0,66,0.00,,,0.16,235.000000,,2013-02-01 19:21:00,
2013-02-01 09:31:00,58.0,47.0,-100.00,NNW,328,5.0,10.0,66,0.00,,,0.16,235.000000,,2013-02-01 19:31:00,
2013-02-01 09:52:00,63.0,57.0,-100.00,West,272,3.0,9.0,80,0.00,,,0.16,498.000000,,2013-02-01 19:52:00,
2013-02-01 10:02:00,63.0,57.0,-100.00,West,272,3.0,9.0,80,0.00,,,0.16,498.000000,,2013-02-01 20:02:00,
2013-02-01 10:11:00,63.0,57.0,-100.00,West,272,3.0,9.0,80,0.00,,,0.16,498.000000,,2013-02-01 20:11:00,
2013-02-01 10:21:00,63.0,57.0,-100.00,West,272,3.0,9.0,80,0.00,,,0.16,498.000000,,2013-02-01 20:21:00,
2013-02-01 10:31:00,63.0,57.0,-100.00,West,272,3.0,9.0,80,0.00,,,0.16,498.000000,,2013-02-01 20:31:00,
2013-02-01 10:52:00,62.0,59.0,-100.00,West,265,6.0,9.0,90,0.00,,,0.16,746.000000,,2013-02-01 20:52:00,
2013-02-01 11:01:00,62.0,59.0,-100.00,West,265,6.0,9.0,90,0.00,,,0.16,746.000000,,2013-02-01 21:01:00,
2013-02-01 11:11:00,62.0,59.0,-100.00,West,265,6.0,9.0,90,0.00,,,0.16,746.000000,,2013-02-01 21:11:00,
2013-02-01 11:21:00,62.0,59.0,-100.00,West,265,6.0,9.0,90,0.00,,,0.16,746.000000,,2013-02-01 21:21:00,
2013-02-01 11:31:00,62.0,59.0,-100.00,West,265,6.0,9.0,90,0.00,,,0.16,746.000000,,2013-02-01 21:31:00,
2013-02-01 11:52:00,59.0,59.0,-100.00,SW,230,3.0,13.0,99,0.00,,,0.16,350.000000,,2013-02-01 21:52:00,
2013-02-01 12:02:00,59.0,59.0,-100.00,SW,230,3.0,13.0,99,0.00,,,0.16,350.000000,,2013-02-01 22:02:00,
2013-02-01 12:11:00,59.0,59.0,-100.00,SW,230,3.0,13.0,99,0.00,,,0.16,350.000000,,2013-02-01 22:11:00,
2013-02-01 12:21:00,59.0,59.0,-100.00,SW,230,3.0,13.0,99,0.00,,,0.16,350.000000,,2013-02-01 22:21:00,
2013-02-01 12:32:00,59.0,59.0,-100.00,SW,230,3.0,13.0,99,0.00,,,0.16,350.000000,,2013-02-01 22:32:00,
2013-02-01 12:52:00,58.0,58.0,-100.00,SSW,200,4.0,10.0,99,0.00,,,0.16,310.000000,,2013-02-01 22:52:00,
2013-02-01 13:01:00,58.0,58.0,-100.00,SSW,200,4.0,10.0,99,0.00,,,0.16,310.000000,,2013-02-01 23:01:00,
2013-02-01 13:11:00,58.0,58.0,-100.00,SSW,200,4.0,10.0,99,0.00,,,0.16,310.000000,,2013-02-01 23:11:00,
2013-02-01 13:21:00,58.0,58.0,-100.00,SSW,200,4.0,10.0,99,0.00,,,0.16,310.000000,,2013-02-01 23:21:00,
2013-02-01 13:31:00,58.0,58.0,-100.00,SSW,200,4.0,10.0,99,0.00,,,0.16,310.000000,,2013-02-01 23:31:00,
2013-02-01 13:52:00,58.0,57.0,-100.00,SSW,213,3.0,7.0,95,0.00,,,0.02,190.000000,,2013-02-01 23:52:00,
2013-02-01 14:02:00,58.0,57.0,-100.00,SSW,213,3.0,7.0,95,0.00,,,0.02,190.000000,,2013-02-02 00:02:00,
2013-02-01 14:11:00,58.0,57.0,-100.00,SSW,213,3.0,7.0,95,0.00,,,0.02,190.000000,,2013-02-02 00:11:00,
2013-02-01 14:21:00,58.0,57.0,-100.00,SSW,213,3.0,7.0,95,0.00,,,0.02,190.000000,,2013-02-02 00:21:00,
2013-02-01 14:32:00,58.0,57.0,-100.00,SSW,213,3.0,7.0,95,0.00,,,0.02,190.000000,,2013-02-02 00:32:00,
2013-02-01 14:52:00,57.0,57.0,-100.00,WSW,248,0.0,9.0,99,0.00,,,0.01,164.000000,,2013-02-02 00:52:00,
2013-02-01 15:02:00,57.0,57.0,-100.00,WSW,248,0.0,9.0,99,0.00,,,0.01,164.000000,,2013-02-02 01:02:00,
2013-02-01 15:11:00,57.0,57.0,-100.00,WSW,248,0.0,9.0,99,0.00,,,0.01,164.000000,,2013-02-02 01:11:00,
2013-02-01 15:21:00,57.0,57.0,-100.00,WSW,248,0.0,9.0,99,0.00,,,0.01,164.000000,,2013-02-02 01:21:00,
2013-02-01 15:31:00,57.0,57.0,-100.00,WSW,248,0.0,9.0,99,0.00,,,0.01,164.000000,,2013-02-02 01:31:00,
2013-02-01 15:52:00,60.0,60.0,-100.00,South,189,5.0,9.0,99,0.00,,,0.01,207.000000,,2013-02-02 01:52:00,
2013-02-01 16:01:00,60.0,60.0,-100.00,South,189,5.0,9.0,99,0.00,,,0.01,207.000000,,2013-02-02 02:01:00,
2013-02-01 16:11:00,60.0,60.0,-100.00,South,189,5.0,9.0,99,0.00,,,0.01,207.000000,,2013-02-02 02:11:00,
2013-02-01 16:21:00,60.0,60.0,-100.00,South,189,5.0,9.0,99,0.00,,,0.01,207.000000,,2013-02-02 02:21:00,
2013-02-01 16:31:00,60.0,60.0,-100.00,South,189,5.0,9.0,99,0.00,,,0.01,207.000000,,2013-02-02 02:31:00,
2013-02-01 16:52:00,61.0,61.0,-100.00,SW,227,5.0,12.0,99,0.00,,,0.01,227.000000,,2013-02-02 02:52:00,
2013-02-01 17:02:00,61.0,61.0,-100.00,SW,227,5.0,12.0,99,0.00,,,0.01,227.000000,,2013-02-02 03:02:00,
2013-02-01 17:11:00,61.0,61.0,-100.00,SW,227,5.0,12.0,99,0.00,,,0.01,227.000000,,2013-02-02 03:11:00,
2013-02-01 17:21:00,61.0,61.0,-100.00,SW,227,5.0,12.0,99,0.00,,,0.01,227.000000,,2013-02-02 03:21:00,
2013-02-01 17:32:00,61.0,61.0,-100.00,SW,227,5.0,12.0,99,0.00,,,0.01,227.000000,,2013-02-02 03:32:00,
2013-02-01 17:52:00,57.0,57.0,-100.00,SSW,205,2.0,11.0,99,0.00,,,0.01,203.000000,,2013-02-02 03:52:00,
2013-02-01 18:01:00,57.0,57.0,-100.00,SSW,205,2.0,11.0,99,0.00,,,0.01,203.000000,,2013-02-02 04:01:00,
2013-02-01 18:11:00,57.0,57.0,-100.00,SSW,205,2.0,11.0,99,0.00,,,0.01,203.000000,,2013-02-02 04:11:00,
2013-02-01 18:21:00,57.0,57.0,-100.00,SSW,205,2.0,11.0,99,0.00,,,0.01,203.000000,,2013-02-02 04:21:00,
2013-02-01 18:32:00,57.0,57.0,-100.00,SSW,205,2.0,11.0,99,0.00,,,0.01,203.000000,,2013-02-02 04:32:00,
2013-02-01 18:52:00,54.0,54.0,-100.00,NW,326,0.0,7.0,99,0.00,,,0.01,30.000000,,2013-02-02 04:52:00,
2013-02-01 19:03:00,54.0,54.0,-100.00,NW,326,0.0,7.0,99,0.00,,,0.01,30.000000,,2013-02-02 05:03:00,
2013-02-01 19:11:00,54.0,54.0,-100.00,NW,326,0.0,7.0,99,0.00,,,0.01,30.000000,,2013-02-02 05:11:00,
2013-02-01 19:22:00,54.0,54.0,-100.00,NW,326,0.0,7.0,99,0.00,,,0.01,30.000000,,2013-02-02 05:22:00,
2013-02-01 19:32:00,54.0,54.0,-100.00,NW,326,0.0,7.0,99,0.00,,,0.01,30.000000,,2013-02-02 05:32:00,
2013-02-01 19:52:00,52.0,52.0,-100.00,NE,42,1.0,5.0,99,0.00,,,0.01,0.000000,,2013-02-02 05:52:00,
2013-02-01 20:02:00,52.0,52.0,-100.00,NE,42,1.0,5.0,99,0.00,,,0.01,0.000000,,2013-02-02 06:02:00,
2013-02-01 20:12:00,52.0,52.0,-100.00,NE,42,1.0,5.0,99,0.00,,,0.01,0.000000,,2013-02-02 06:12:00,
2013-02-01 20:21:00,52.0,52.0,-100.00,NE,42,1.0,5.0,99,0.00,,,0.01,0.000000,,2013-02-02 06:21:00,
2013-02-01 20:31:00,52.0,52.0,-100.00,NE,42,1.0,5.0,99,0.00,,,0.01,0.000000,,2013-02-02 06:31:00,
2013-02-01 20:52:00,50.0,50.0,-100.00,NNE,28,3.0,7.0,100,0.00,,,0.01,0.000000,,2013-02-02 06:52:00,
2013-02-01 21:02:00,50.0,50.0,-100.00,NNE,28,3.0,7.0,100,0.00,,,0.01,0.000000,,2013-02-02 07:02:00,
2013-02-01 21:11:00,50.0,50.0,-100.00,NNE,28,3.0,7.0,100,0.00,,,0.01,0.000000,,2013-02-02 07:11:00,
2013-02-01 21:21:00,50.0,50.0,-100.00,NNE,28,3.0,7.0,100,0.00,,,0.01,0.000000,,2013-02-02 07:21:00,
2013-02-01 21:31:00,50.0,50.0,-100.00,NNE,28,3.0,7.0,100,0.00,,,0.01,0.000000,,2013-02-02 07:31:00,
2013-02-01 21:52:00,48.0,48.0,-100.00,ESE,114,1.0,10.0,99,0.00,,,0.01,0.000000,,2013-02-02 07:52:00,
2013-02-01 22:01:00,48.0,48.0,-100.00,ESE,114,1.0,10.0,99,0.00,,,0.01,0.000000,,2013-02-02 08:01:00,
2013-02-01 22:11:00,48.0,48.0,-100.00,ESE,114,1.0,10.0,99,0.00,,,0.01,0.000000,,2013-02-02 08:11:00,
2013-02-01 22:21:00,48.0,48.0,-100.00,ESE,114,1.0,10.0,99,0.00,,,0.01,0.000000,,2013-02-02 08:21:00,
2013-02-01 22:31:00,48.0,48.0,-100.00,ESE,114,1.0,10.0,99,0.00,,,0.01,0.000000,,2013-02-02 08:31:00,
2013-02-01 22:53:00,51.0,43.0,-100.00,ENE,68,6.0,14.0,75,0.00,,,0.00,0.000000,,2013-02-02 08:53:00,
2013-02-01 23:01:00,51.0,43.0,-100.00,ENE,68,6.0,14.0,75,0.00,,,0.00,0.000000,,2013-02-02 09:01:00,
2013-02-01 23:11:00,51.0,43.0,-100.00,ENE,68,6.0,14.0,75,0.00,,,0.00,0.000000,,2013-02-02 09:11:00,
2013-02-01 23:22:00,51.0,43.0,-100.00,ENE,68,6.0,14.0,75,0.00,,,0.00,0.000000,,2013-02-02 09:22:00,
2013-02-01 23:31:00,51.0,43.0,-100.00,ENE,68,6.0,14.0,75,0.00,,,0.00,0.000000,,2013-02-02 09:31:00,
2013-02-01 23:52:00,52.0,27.0,-100.00,ENE,69,5.0,16.0,38,0.00,,,0.00,0.000000,,2013-02-02 09:52:00,